Location: Chiroubles
(46.1812°N, 4.6660°E)
Time: 11:07:54
(UTC+00:00)

A-11 Canister half - Visible Passes

Search period start: 30 November 2020 00:00
Search period end: 10 December 2020 00:00
Orbit: 1525 x 1684 km, 47.3° (Epoch: 29 November)

Date Brightness Start Highest point End Pass type
(mag) Time Alt. Az. Time Alt. Az. Time Alt. Az.
30 Nov 11.2 02:29:25 10° SE 02:33:15 13° ESE 02:37:04 10° E visible
30 Nov 10.0 04:26:58 10° SSW 04:36:20 44° SE 04:45:36 10° ENE visible
01 Dec 11.2 02:08:40 10° SE 02:11:41 12° ESE 02:14:43 10° ESE visible
01 Dec 10.0 04:05:32 10° SSW 04:14:42 43° SE 04:23:54 10° ENE visible
01 Dec 9.3 06:09:01 10° WSW 06:19:13 83° SSE 06:29:11 10° ENE visible
02 Dec 11.2 01:48:18 10° SE 01:50:08 11° ESE 01:51:59 10° ESE visible
02 Dec 10.0 03:46:20 19° SSW 03:53:05 41° SE 04:02:13 10° ENE visible
02 Dec 9.3 05:47:20 10° WSW 05:57:32 82° SSE 06:07:31 10° ENE visible
03 Dec 10.0 03:26:52 27° S 03:31:27 39° SE 03:40:30 10° ENE visible
03 Dec 9.2 05:25:40 10° WSW 05:35:51 80° SSE 05:45:51 10° ENE visible
04 Dec 10.1 03:07:12 33° SSE 03:09:50 38° SE 03:18:47 10° ENE visible
04 Dec 9.2 05:05:34 16° WSW 05:14:09 79° SSE 05:24:10 10° ENE visible
05 Dec 10.0 02:47:24 35° SE 02:48:14 36° SE 02:57:02 10° ENE visible
05 Dec 9.2 04:45:44 25° WSW 04:52:29 77° SSE 05:02:30 10° ENE visible
06 Dec 10.2 02:27:27 34° SE 02:27:27 34° SE 02:35:19 10° ENE visible
06 Dec 9.2 04:25:47 35° SW 04:30:48 75° SSE 04:40:50 10° ENE visible
06 Dec 9.2 06:25:55 10° W 06:36:08 84° N 06:46:08 10° E visible
07 Dec 10.4 02:07:24 30° ESE 02:07:24 30° ESE 02:13:34 10° ENE visible
07 Dec 9.2 04:05:43 47° SW 04:09:07 74° SSE 04:19:09 10° ENE visible
07 Dec 9.2 06:04:11 10° W 06:14:26 84° N 06:24:26 10° E visible
08 Dec 10.6 01:47:15 24° E 01:47:15 24° E 01:51:49 10° ENE visible
08 Dec 9.1 03:45:35 61° SSW 03:47:27 72° SSE 03:57:28 10° ENE visible
08 Dec 9.2 05:43:54 15° W 05:52:44 84° N 06:02:45 10° E visible
09 Dec 10.9 01:27:03 19° E 01:27:03 19° E 01:30:03 10° ENE visible
09 Dec 9.1 03:25:22 69° SSE 03:25:46 70° SSE 03:35:48 10° ENE visible
09 Dec 9.1 05:23:41 22° W 05:31:01 84° N 05:41:05 10° E visible
